Time,TemperatureF,DewpointF,PressureIn,WindDirection,WindDirectionDegrees,WindSpeedMPH,WindSpeedGustMPH,Humidity,HourlyPrecipIn,Conditions,Clouds,dailyrainin,SoftwareType,DateUTC
2013-01-16 00:07:00,44.8,32.9,30.29,North,0,0.0,-999.0,63,0.00,,,0.00,open2300 v1.10,2013-01-16 08:07:00,
2013-01-16 00:21:00,44.6,33.2,30.29,North,0,0.0,-999.0,64,0.00,,,0.00,open2300 v1.10,2013-01-16 08:21:00,
2013-01-16 00:36:00,44.4,33.0,30.30,North,0,0.0,-999.0,64,0.00,,,0.00,open2300 v1.10,2013-01-16 08:36:00,
2013-01-16 00:51:00,44.4,32.6,30.30,North,0,0.0,-999.0,63,0.00,,,0.00,open2300 v1.10,2013-01-16 08:51:00,
2013-01-16 01:07:00,44.4,33.0,30.30,North,0,0.0,-999.0,64,0.00,,,0.00,open2300 v1.10,2013-01-16 09:07:00,
2013-01-16 01:21:00,44.4,33.0,30.30,North,0,0.0,-999.0,64,0.00,,,0.00,open2300 v1.10,2013-01-16 09:21:00,
2013-01-16 01:36:00,44.4,33.0,30.30,North,0,0.0,-999.0,64,0.00,,,0.00,open2300 v1.10,2013-01-16 09:36:00,
2013-01-16 01:51:00,44.2,32.8,30.31,North,0,0.0,-999.0,64,0.00,,,0.00,open2300 v1.10,2013-01-16 09:51:00,
2013-01-16 02:07:00,44.1,33.0,30.31,North,0,0.0,-999.0,65,0.00,,,0.00,open2300 v1.10,2013-01-16 10:07:00,
2013-01-16 02:21:00,43.9,32.8,30.30,North,0,0.0,-999.0,65,0.00,,,0.00,open2300 v1.10,2013-01-16 10:21:00,
2013-01-16 02:36:00,43.9,33.2,30.30,North,0,0.0,-999.0,66,0.00,,,0.00,open2300 v1.10,2013-01-16 10:36:00,
2013-01-16 02:51:00,43.7,33.4,30.30,North,0,0.0,-999.0,67,0.00,,,0.00,open2300 v1.10,2013-01-16 10:51:00,
2013-01-16 03:07:00,43.7,33.1,30.30,North,0,0.0,-999.0,66,0.00,,,0.00,open2300 v1.10,2013-01-16 11:07:00,
2013-01-16 03:21:00,43.7,33.4,30.30,North,0,0.0,-999.0,67,0.00,,,0.00,open2300 v1.10,2013-01-16 11:21:00,
2013-01-16 03:36:00,43.7,33.1,30.30,North,0,0.0,-999.0,66,0.00,,,0.00,open2300 v1.10,2013-01-16 11:36:00,
2013-01-16 03:51:00,43.7,33.1,30.30,North,0,0.0,-999.0,66,0.00,,,0.00,open2300 v1.10,2013-01-16 11:51:00,
2013-01-16 04:07:00,43.5,32.9,30.30,North,0,0.0,-999.0,66,0.00,,,0.00,open2300 v1.10,2013-01-16 12:07:00,
2013-01-16 04:21:00,43.5,32.9,30.29,North,0,0.0,-999.0,66,0.00,,,0.00,open2300 v1.10,2013-01-16 12:21:00,
2013-01-16 04:36:00,43.3,32.7,30.29,North,0,0.0,-999.0,66,0.00,,,0.00,open2300 v1.10,2013-01-16 12:36:00,
2013-01-16 04:51:00,43.2,32.9,30.28,North,0,0.0,-999.0,67,0.00,,,0.00,open2300 v1.10,2013-01-16 12:51:00,
2013-01-16 05:07:00,43.0,33.2,30.28,North,0,0.0,-999.0,68,0.00,,,0.00,open2300 v1.10,2013-01-16 13:07:00,
2013-01-16 05:21:00,43.0,33.2,30.28,North,0,0.0,-999.0,68,0.00,,,0.00,open2300 v1.10,2013-01-16 13:21:00,
2013-01-16 05:36:00,42.6,33.2,30.28,North,0,0.0,-999.0,69,0.00,,,0.00,open2300 v1.10,2013-01-16 13:36:00,
2013-01-16 05:51:00,42.6,32.8,30.27,North,0,0.0,-999.0,68,0.00,,,0.00,open2300 v1.10,2013-01-16 13:51:00,
2013-01-16 06:07:00,42.6,33.2,30.27,North,0,0.0,-999.0,69,0.00,,,0.00,open2300 v1.10,2013-01-16 14:07:00,
2013-01-16 06:21:00,42.6,33.2,30.28,North,0,0.0,-999.0,69,0.00,,,0.00,open2300 v1.10,2013-01-16 14:21:00,
2013-01-16 06:36:00,42.6,33.2,30.27,North,0,0.0,-999.0,69,0.00,,,0.00,open2300 v1.10,2013-01-16 14:36:00,
2013-01-16 06:51:00,42.4,33.0,30.27,North,0,0.0,-999.0,69,0.00,,,0.00,open2300 v1.10,2013-01-16 14:51:00,
2013-01-16 07:06:00,42.4,33.0,30.28,North,0,0.0,-999.0,69,0.00,,,0.00,open2300 v1.10,2013-01-16 15:06:00,
2013-01-16 07:21:00,42.3,32.9,30.28,North,0,0.0,-999.0,69,0.00,,,0.00,open2300 v1.10,2013-01-16 15:21:00,
2013-01-16 07:36:00,42.1,33.1,30.28,North,0,0.0,-999.0,70,0.00,,,0.00,open2300 v1.10,2013-01-16 15:36:00,
2013-01-16 07:51:00,42.1,33.1,30.28,North,0,0.0,-999.0,70,0.00,,,0.00,open2300 v1.10,2013-01-16 15:51:00,
2013-01-16 08:06:00,42.1,33.1,30.28,North,0,0.0,-999.0,70,0.00,,,0.00,open2300 v1.10,2013-01-16 16:06:00,
2013-01-16 08:21:00,42.4,33.8,30.29,North,0,0.0,-999.0,71,0.00,,,0.00,open2300 v1.10,2013-01-16 16:21:00,
2013-01-16 08:36:00,42.6,33.6,30.29,North,0,0.0,-999.0,70,0.00,,,0.00,open2300 v1.10,2013-01-16 16:36:00,
2013-01-16 08:51:00,43.0,34.0,30.29,North,0,0.0,-999.0,70,0.00,,,0.00,open2300 v1.10,2013-01-16 16:51:00,
2013-01-16 09:06:00,43.5,34.5,30.29,North,0,0.0,-999.0,70,0.00,,,0.00,open2300 v1.10,2013-01-16 17:06:00,
2013-01-16 09:21:00,43.7,34.6,30.30,North,0,0.0,-999.0,70,0.00,,,0.00,open2300 v1.10,2013-01-16 17:21:00,
2013-01-16 09:36:00,44.4,35.3,30.29,North,0,0.0,-999.0,70,0.00,,,0.00,open2300 v1.10,2013-01-16 17:36:00,
2013-01-16 09:51:00,44.8,35.6,30.29,North,0,0.0,-999.0,70,0.00,,,0.00,open2300 v1.10,2013-01-16 17:51:00,
2013-01-16 10:06:00,45.0,35.8,30.28,North,0,0.0,-999.0,70,0.00,,,0.00,open2300 v1.10,2013-01-16 18:06:00,
2013-01-16 10:21:00,45.5,35.9,30.28,North,0,0.0,-999.0,69,0.00,,,0.00,open2300 v1.10,2013-01-16 18:21:00,
2013-01-16 10:36:00,45.7,36.1,30.28,North,0,0.0,-999.0,69,0.00,,,0.00,open2300 v1.10,2013-01-16 18:36:00,
2013-01-16 10:51:00,45.7,36.1,30.27,North,0,0.0,-999.0,69,0.00,,,0.00,open2300 v1.10,2013-01-16 18:51:00,
2013-01-16 11:06:00,46.2,36.6,30.27,North,0,0.0,-999.0,69,0.00,,,0.00,open2300 v1.10,2013-01-16 19:06:00,
2013-01-16 11:21:00,46.8,37.2,30.26,North,0,0.0,-999.0,69,0.00,,,0.00,open2300 v1.10,2013-01-16 19:21:00,
2013-01-16 11:36:00,47.1,37.1,30.25,North,0,0.0,-999.0,68,0.00,,,0.00,open2300 v1.10,2013-01-16 19:36:00,
2013-01-16 11:51:00,47.8,37.7,30.25,North,0,0.0,-999.0,68,0.00,,,0.00,open2300 v1.10,2013-01-16 19:51:00,
2013-01-16 12:06:00,48.0,37.5,30.23,North,0,0.0,-999.0,67,0.00,,,0.00,open2300 v1.10,2013-01-16 20:06:00,
2013-01-16 12:21:00,48.6,37.7,30.22,North,0,0.0,-999.0,66,0.00,,,0.00,open2300 v1.10,2013-01-16 20:21:00,
2013-01-16 12:36:00,49.3,37.6,30.21,North,0,0.0,-999.0,64,0.00,,,0.00,open2300 v1.10,2013-01-16 20:36:00,
2013-01-16 12:51:00,49.8,37.7,30.20,North,0,0.0,-999.0,63,0.00,,,0.00,open2300 v1.10,2013-01-16 20:51:00,
2013-01-16 13:06:00,50.5,38.0,30.20,North,0,0.0,-999.0,62,0.00,,,0.00,open2300 v1.10,2013-01-16 21:06:00,
2013-01-16 13:21:00,51.3,38.6,30.19,North,0,0.0,-999.0,62,0.00,,,0.00,open2300 v1.10,2013-01-16 21:21:00,
2013-01-16 13:36:00,51.6,38.5,30.18,North,0,0.0,-999.0,61,0.00,,,0.00,open2300 v1.10,2013-01-16 21:36:00,
2013-01-16 13:51:00,52.3,38.8,30.18,North,0,0.0,-999.0,60,0.00,,,0.00,open2300 v1.10,2013-01-16 21:51:00,
2013-01-16 14:06:00,52.9,38.9,30.18,North,0,0.0,-999.0,59,0.00,,,0.00,open2300 v1.10,2013-01-16 22:06:00,
2013-01-16 14:21:00,53.2,39.3,30.17,North,0,0.0,-999.0,59,0.00,,,0.00,open2300 v1.10,2013-01-16 22:21:00,
2013-01-16 14:36:00,53.4,39.0,30.18,North,0,0.0,-999.0,58,0.00,,,0.00,open2300 v1.10,2013-01-16 22:36:00,
2013-01-16 14:51:00,53.4,39.0,30.17,North,0,0.0,-999.0,58,0.00,,,0.00,open2300 v1.10,2013-01-16 22:51:00,
2013-01-16 15:06:00,53.8,39.3,30.17,North,0,0.0,-999.0,58,0.00,,,0.00,open2300 v1.10,2013-01-16 23:06:00,
2013-01-16 15:21:00,54.0,39.0,30.17,North,0,0.0,-999.0,57,0.00,,,0.00,open2300 v1.10,2013-01-16 23:21:00,
2013-01-16 15:36:00,54.1,38.7,30.17,North,0,0.0,-999.0,56,0.00,,,0.00,open2300 v1.10,2013-01-16 23:36:00,
2013-01-16 15:51:00,54.3,38.9,30.17,North,0,0.0,-999.0,56,0.00,,,0.00,open2300 v1.10,2013-01-16 23:51:00,
2013-01-16 16:06:00,54.3,38.9,30.16,North,0,0.0,-999.0,56,0.00,,,0.00,open2300 v1.10,2013-01-17 00:06:00,
2013-01-16 16:21:00,54.5,39.0,30.17,North,0,0.0,-999.0,56,0.00,,,0.00,open2300 v1.10,2013-01-17 00:21:00,
2013-01-16 16:36:00,54.9,39.4,30.16,North,0,0.0,-999.0,56,0.00,,,0.00,open2300 v1.10,2013-01-17 00:36:00,
2013-01-16 16:51:00,54.9,38.9,30.16,North,0,0.0,-999.0,55,0.00,,,0.00,open2300 v1.10,2013-01-17 00:51:00,
2013-01-16 17:06:00,54.7,38.3,30.16,North,0,0.0,-999.0,54,0.00,,,0.00,open2300 v1.10,2013-01-17 01:06:00,
2013-01-16 17:21:00,54.1,37.8,30.16,North,0,0.0,-999.0,54,0.00,,,0.00,open2300 v1.10,2013-01-17 01:21:00,
2013-01-16 17:36:00,53.4,37.1,30.16,North,0,0.0,-999.0,54,0.00,,,0.00,open2300 v1.10,2013-01-17 01:36:00,
2013-01-16 17:51:00,53.2,37.0,30.16,North,0,0.0,-999.0,54,0.00,,,0.00,open2300 v1.10,2013-01-17 01:51:00,
2013-01-16 18:06:00,52.5,36.7,30.15,North,0,0.0,-999.0,55,0.00,,,0.00,open2300 v1.10,2013-01-17 02:06:00,
2013-01-16 18:21:00,52.3,36.5,30.16,North,0,0.0,-999.0,55,0.00,,,0.00,open2300 v1.10,2013-01-17 02:21:00,
2013-01-16 18:36:00,51.6,35.9,30.16,North,0,0.0,-999.0,55,0.00,,,0.00,open2300 v1.10,2013-01-17 02:36:00,
2013-01-16 18:51:00,51.4,35.7,30.15,North,0,0.0,-999.0,55,0.00,,,0.00,open2300 v1.10,2013-01-17 02:51:00,
2013-01-16 19:06:00,50.7,35.5,30.15,North,0,0.0,-999.0,56,0.00,,,0.00,open2300 v1.10,2013-01-17 03:06:00,
2013-01-16 19:21:00,50.4,35.2,30.15,North,0,0.0,-999.0,56,0.00,,,0.00,open2300 v1.10,2013-01-17 03:21:00,
2013-01-16 19:36:00,50.2,35.0,30.15,North,0,0.0,-999.0,56,0.00,,,0.00,open2300 v1.10,2013-01-17 03:36:00,
2013-01-16 19:51:00,50.2,35.5,30.15,North,0,0.0,-999.0,57,0.00,,,0.00,open2300 v1.10,2013-01-17 03:51:00,
2013-01-16 20:06:00,50.2,35.5,30.15,North,0,0.0,-999.0,57,0.00,,,0.00,open2300 v1.10,2013-01-17 04:06:00,
2013-01-16 20:21:00,50.2,35.0,30.15,North,0,0.0,-999.0,56,0.00,,,0.00,open2300 v1.10,2013-01-17 04:21:00,
2013-01-16 20:36:00,49.8,34.7,30.15,North,0,0.0,-999.0,56,0.00,,,0.00,open2300 v1.10,2013-01-17 04:36:00,
2013-01-16 20:51:00,49.6,35.0,30.15,North,0,0.0,-999.0,57,0.00,,,0.00,open2300 v1.10,2013-01-17 04:51:00,
2013-01-16 21:06:00,49.5,35.3,30.14,North,0,0.0,-999.0,58,0.00,,,0.00,open2300 v1.10,2013-01-17 05:06:00,
2013-01-16 21:21:00,49.3,35.1,30.14,North,0,0.0,-999.0,58,0.00,,,0.00,open2300 v1.10,2013-01-17 05:21:00,
2013-01-16 21:36:00,49.1,35.0,30.14,North,0,0.0,-999.0,58,0.00,,,0.00,open2300 v1.10,2013-01-17 05:36:00,
2013-01-16 21:51:00,48.9,35.2,30.14,North,0,0.0,-999.0,59,0.00,,,0.00,open2300 v1.10,2013-01-17 05:51:00,
2013-01-16 22:06:00,48.7,35.1,30.14,North,0,0.0,-999.0,59,0.00,,,0.00,open2300 v1.10,2013-01-17 06:06:00,
2013-01-16 22:21:00,48.6,35.8,30.13,North,0,0.0,-999.0,61,0.00,,,0.00,open2300 v1.10,2013-01-17 06:21:00,
2013-01-16 22:36:00,48.2,35.4,30.14,North,0,0.0,-999.0,61,0.00,,,0.00,open2300 v1.10,2013-01-17 06:36:00,
2013-01-16 22:51:00,48.0,35.6,30.14,North,0,0.0,-999.0,62,0.00,,,0.00,open2300 v1.10,2013-01-17 06:51:00,
2013-01-16 23:06:00,47.8,35.5,30.13,North,0,0.0,-999.0,62,0.00,,,0.00,open2300 v1.10,2013-01-17 07:06:00,
2013-01-16 23:21:00,48.0,35.6,30.13,North,0,0.0,-999.0,62,0.00,,,0.00,open2300 v1.10,2013-01-17 07:21:00,
2013-01-16 23:36:00,48.0,35.3,30.13,North,0,0.0,-999.0,61,0.00,,,0.00,open2300 v1.10,2013-01-17 07:36:00,
2013-01-16 23:51:00,48.0,34.9,30.13,North,0,0.0,-999.0,60,0.00,,,0.00,open2300 v1.10,2013-01-17 07:51:00,